Time,TemperatureF,DewpointF,PressureIn,WindDirection,WindDirectionDegrees,WindSpeedMPH,WindSpeedGustMPH,Humidity,HourlyPrecipIn,Conditions,Clouds,dailyrainin,SoftwareType,DateUTC
2013-07-01 00:01:00,58.3,50.4,30.11,North,-999,0.0,0.7,75,0.00,,,0.00,pywws,2013-06-30 23:01:00,
2013-07-01 00:06:00,58.3,50.4,30.11,South,180,0.7,6.0,75,0.00,,,0.00,pywws,2013-06-30 23:06:00,
2013-07-01 00:11:00,57.7,49.9,30.11,North,-999,0.0,3.1,75,0.00,,,0.00,pywws,2013-06-30 23:11:00,
2013-07-01 00:16:00,57.9,50.0,30.11,North,-999,0.0,1.6,75,0.00,,,0.00,pywws,2013-06-30 23:16:00,
2013-07-01 00:21:00,57.9,50.0,30.10,North,-999,0.0,1.6,75,0.00,,,0.00,pywws,2013-06-30 23:21:00,
2013-07-01 00:31:00,57.7,50.2,30.11,North,0,0.7,4.5,76,0.00,,,0.00,pywws,2013-06-30 23:31:00,
2013-07-01 00:36:00,57.6,50.1,30.11,North,-999,0.0,0.7,76,0.00,,,0.00,pywws,2013-06-30 23:36:00,
2013-07-01 00:41:00,57.4,49.9,30.11,North,-999,0.0,0.7,76,0.00,,,0.00,pywws,2013-06-30 23:41:00,
2013-07-01 00:46:00,57.2,50.1,30.11,SW,225,0.7,3.8,77,0.00,,,0.00,pywws,2013-06-30 23:46:00,
2013-07-01 00:51:00,57.2,50.1,30.11,North,-999,0.0,1.6,77,0.00,,,0.00,pywws,2013-06-30 23:51:00,
2013-07-01 01:01:00,57.0,49.9,30.10,North,-999,0.0,0.7,77,0.00,,,0.00,pywws,2013-07-01 00:01:00,
2013-07-01 01:05:00,57.0,49.9,30.10,North,-999,0.0,1.6,77,0.00,,,0.00,pywws,2013-07-01 00:05:00,
2013-07-01 01:10:00,57.4,50.2,30.09,North,0,0.7,3.1,77,0.00,,,0.00,pywws,2013-07-01 00:10:00,
2013-07-01 01:15:00,57.6,50.4,30.10,SSW,202,0.7,1.6,77,0.00,,,0.00,pywws,2013-07-01 00:15:00,
2013-07-01 01:20:00,57.9,50.8,30.09,North,-999,0.0,1.6,77,0.00,,,0.00,pywws,2013-07-01 00:20:00,
2013-07-01 01:31:00,58.1,50.6,30.09,North,-999,0.0,1.6,76,0.00,,,0.00,pywws,2013-07-01 00:31:00,
2013-07-01 01:36:00,57.9,50.4,30.09,North,-999,0.0,0.0,76,0.00,,,0.00,pywws,2013-07-01 00:36:00,
2013-07-01 01:41:00,57.6,50.4,30.08,North,-999,0.0,0.7,77,0.00,,,0.00,pywws,2013-07-01 00:41:00,
2013-07-01 01:46:00,57.6,50.4,30.09,North,-999,0.0,0.7,77,0.00,,,0.00,pywws,2013-07-01 00:46:00,
2013-07-01 01:51:00,57.4,50.2,30.09,North,-999,0.0,0.0,77,0.00,,,0.00,pywws,2013-07-01 00:51:00,
2013-07-01 02:01:00,57.0,49.9,30.08,North,-999,0.0,0.0,77,0.00,,,0.00,pywws,2013-07-01 01:01:00,
2013-07-01 02:06:00,57.0,50.2,30.08,North,-999,0.0,0.0,78,0.00,,,0.00,pywws,2013-07-01 01:06:00,
2013-07-01 02:11:00,56.8,50.1,30.08,North,-999,0.0,0.0,78,0.00,,,0.00,pywws,2013-07-01 01:11:00,
2013-07-01 02:16:00,57.0,50.6,30.08,North,-999,0.0,0.0,79,0.00,,,0.00,pywws,2013-07-01 01:16:00,
2013-07-01 02:21:00,57.2,50.7,30.08,North,-999,0.0,1.6,79,0.00,,,0.00,pywws,2013-07-01 01:21:00,
2013-07-01 02:31:00,57.4,50.9,30.07,North,-999,0.0,0.7,79,0.00,,,0.00,pywws,2013-07-01 01:31:00,
2013-07-01 02:36:00,57.9,51.1,30.07,North,-999,0.0,0.7,78,0.00,,,0.00,pywws,2013-07-01 01:36:00,
2013-07-01 02:41:00,58.1,51.3,30.07,North,-999,0.0,0.0,78,0.00,,,0.00,pywws,2013-07-01 01:41:00,
2013-07-01 02:46:00,58.3,51.4,30.07,North,-999,0.0,2.2,78,0.00,,,0.00,pywws,2013-07-01 01:46:00,
2013-07-01 02:51:00,58.5,51.3,30.07,North,-999,0.0,0.7,77,0.00,,,0.00,pywws,2013-07-01 01:51:00,
2013-07-01 03:01:00,58.6,51.4,30.07,West,270,1.6,3.1,77,0.00,,,0.00,pywws,2013-07-01 02:01:00,
2013-07-01 03:06:00,58.6,51.4,30.07,North,-999,0.0,1.6,77,0.00,,,0.00,pywws,2013-07-01 02:06:00,
2013-07-01 03:11:00,58.8,51.6,30.07,North,-999,0.0,1.6,77,0.00,,,0.00,pywws,2013-07-01 02:11:00,
2013-07-01 03:16:00,58.8,51.6,30.07,North,-999,0.0,2.2,77,0.00,,,0.00,pywws,2013-07-01 02:16:00,
2013-07-01 03:21:00,58.8,51.6,30.06,North,-999,0.0,0.7,77,0.00,,,0.00,pywws,2013-07-01 02:21:00,
2013-07-01 03:31:00,58.8,51.6,30.06,North,-999,0.0,0.7,77,0.00,,,0.00,pywws,2013-07-01 02:31:00,
2013-07-01 03:36:00,58.8,51.6,30.07,North,-999,0.0,0.7,77,0.00,,,0.00,pywws,2013-07-01 02:36:00,
2013-07-01 03:41:00,58.8,52.0,30.07,North,-999,0.0,2.2,78,0.00,,,0.00,pywws,2013-07-01 02:41:00,
2013-07-01 03:46:00,58.6,52.1,30.06,West,270,0.7,3.1,79,0.00,,,0.00,pywws,2013-07-01 02:46:00,
2013-07-01 03:51:00,58.3,52.1,30.07,NW,315,0.7,2.2,80,0.00,,,0.00,pywws,2013-07-01 02:51:00,
2013-07-01 04:01:00,58.1,52.0,30.07,North,-999,0.0,0.7,80,0.00,,,0.00,pywws,2013-07-01 03:01:00,
2013-07-01 04:06:00,58.1,52.0,30.07,North,-999,0.0,1.6,80,0.00,,,0.00,pywws,2013-07-01 03:06:00,
2013-07-01 04:11:00,57.9,52.1,30.06,North,-999,0.0,1.6,81,0.00,,,0.00,pywws,2013-07-01 03:11:00,
2013-07-01 04:16:00,57.7,51.9,30.07,North,-999,0.0,1.6,81,0.00,,,0.00,pywws,2013-07-01 03:16:00,
2013-07-01 04:21:00,57.4,51.6,30.06,North,-999,0.0,0.7,81,0.00,,,0.00,pywws,2013-07-01 03:21:00,
2013-07-01 04:31:00,57.2,51.4,30.06,North,-999,0.0,0.7,81,0.00,,,0.00,pywws,2013-07-01 03:31:00,
2013-07-01 04:36:00,56.5,51.1,30.06,North,-999,0.0,0.0,82,0.00,,,0.00,pywws,2013-07-01 03:36:00,
2013-07-01 04:41:00,56.5,51.1,30.06,North,-999,0.0,0.7,82,0.00,,,0.00,pywws,2013-07-01 03:41:00,
2013-07-01 04:46:00,56.1,51.0,30.06,North,-999,0.0,0.7,83,0.00,,,0.00,pywws,2013-07-01 03:46:00,
2013-07-01 04:51:00,55.9,50.9,30.06,North,-999,0.0,0.0,83,0.00,,,0.00,pywws,2013-07-01 03:51:00,
2013-07-01 05:01:00,55.8,50.7,30.06,North,-999,0.0,0.7,83,0.00,,,0.00,pywws,2013-07-01 04:01:00,
2013-07-01 05:06:00,55.8,50.7,30.07,North,-999,0.0,0.7,83,0.00,,,0.00,pywws,2013-07-01 04:06:00,
2013-07-01 05:11:00,55.8,50.7,30.07,North,-999,0.0,0.7,83,0.00,,,0.00,pywws,2013-07-01 04:11:00,
2013-07-01 05:16:00,55.8,50.7,30.07,North,-999,0.0,0.0,83,0.00,,,0.00,pywws,2013-07-01 04:16:00,
2013-07-01 05:21:00,55.8,50.7,30.06,North,-999,0.0,0.7,83,0.00,,,0.00,pywws,2013-07-01 04:21:00,
2013-07-01 05:31:00,55.8,50.7,30.06,North,-999,0.0,0.0,83,0.00,,,0.00,pywws,2013-07-01 04:31:00,
2013-07-01 05:36:00,55.9,50.9,30.07,North,-999,0.0,0.7,83,0.00,,,0.00,pywws,2013-07-01 04:36:00,
2013-07-01 05:41:00,55.9,50.9,30.07,North,-999,0.0,0.0,83,0.00,,,0.00,pywws,2013-07-01 04:41:00,
2013-07-01 05:46:00,56.1,50.7,30.07,North,-999,0.0,0.0,82,0.00,,,0.00,pywws,2013-07-01 04:46:00,
2013-07-01 05:51:00,55.9,50.5,30.07,North,-999,0.0,0.0,82,0.00,,,0.00,pywws,2013-07-01 04:51:00,
2013-07-01 06:01:00,55.9,50.5,30.07,North,-999,0.0,0.0,82,0.00,,,0.00,pywws,2013-07-01 05:01:00,
2013-07-01 06:06:00,56.1,50.4,30.07,North,-999,0.0,0.7,81,0.00,,,0.00,pywws,2013-07-01 05:06:00,
2013-07-01 06:11:00,56.8,50.7,30.07,North,-999,0.0,0.7,80,0.00,,,0.00,pywws,2013-07-01 05:11:00,
2013-07-01 06:16:00,57.0,50.9,30.07,North,-999,0.0,0.0,80,0.00,,,0.00,pywws,2013-07-01 05:16:00,
2013-07-01 06:21:00,57.6,51.1,30.07,North,-999,0.0,0.0,79,0.00,,,0.00,pywws,2013-07-01 05:21:00,
2013-07-01 06:31:00,58.1,51.3,30.07,North,-999,0.0,0.0,78,0.00,,,0.00,pywws,2013-07-01 05:31:00,
2013-07-01 06:36:00,59.0,51.1,30.08,West,270,1.6,6.9,75,0.00,,,0.00,pywws,2013-07-01 05:36:00,
2013-07-01 06:41:00,58.8,50.5,30.07,North,-999,0.0,0.7,74,0.00,,,0.00,pywws,2013-07-01 05:41:00,
2013-07-01 06:46:00,59.0,50.7,30.07,North,-999,0.0,0.7,74,0.00,,,0.00,pywws,2013-07-01 05:46:00,
2013-07-01 06:51:00,59.0,50.7,30.07,NW,315,0.7,4.5,74,0.00,,,0.00,pywws,2013-07-01 05:51:00,
2013-07-01 07:01:00,58.8,50.5,30.08,North,-999,0.0,1.6,74,0.00,,,0.00,pywws,2013-07-01 06:01:00,
2013-07-01 07:06:00,58.8,50.5,30.07,North,-999,0.0,3.8,74,0.00,,,0.00,pywws,2013-07-01 06:06:00,
2013-07-01 07:11:00,59.0,50.7,30.07,North,-999,0.0,0.7,74,0.00,,,0.00,pywws,2013-07-01 06:11:00,
2013-07-01 07:16:00,59.2,50.9,30.08,North,-999,0.0,0.7,74,0.00,,,0.00,pywws,2013-07-01 06:16:00,
2013-07-01 07:21:00,59.5,50.9,30.08,North,-999,0.0,0.7,73,0.00,,,0.00,pywws,2013-07-01 06:21:00,
2013-07-01 07:31:00,59.9,51.2,30.08,North,-999,0.0,0.7,73,0.00,,,0.00,pywws,2013-07-01 06:31:00,
2013-07-01 07:36:00,60.8,51.3,30.08,North,-999,0.0,0.7,71,0.00,,,0.00,pywws,2013-07-01 06:36:00,
2013-07-01 07:41:00,61.3,51.1,30.08,West,270,0.7,3.1,69,0.00,,,0.00,pywws,2013-07-01 06:41:00,
2013-07-01 07:46:00,61.9,51.6,30.08,North,-999,0.0,0.0,69,0.00,,,0.00,pywws,2013-07-01 06:46:00,
2013-07-01 07:51:00,62.4,51.7,30.08,North,-999,0.0,2.2,68,0.00,,,0.00,pywws,2013-07-01 06:51:00,
2013-07-01 08:01:00,62.1,51.4,30.08,North,-999,0.0,0.0,68,0.00,,,0.00,pywws,2013-07-01 07:01:00,
2013-07-01 08:06:00,62.4,51.7,30.08,West,270,0.7,3.1,68,0.00,,,0.00,pywws,2013-07-01 07:06:00,
2013-07-01 08:11:00,63.9,51.9,30.07,North,-999,0.0,2.2,65,0.00,,,0.00,pywws,2013-07-01 07:11:00,
2013-07-01 08:16:00,64.4,51.5,30.07,North,-999,0.0,0.7,63,0.00,,,0.00,pywws,2013-07-01 07:16:00,
2013-07-01 08:21:00,64.0,51.2,30.08,North,-999,0.0,3.1,63,0.00,,,0.00,pywws,2013-07-01 07:21:00,
2013-07-01 08:31:00,64.4,51.5,30.08,North,-999,0.0,0.7,63,0.00,,,0.00,pywws,2013-07-01 07:31:00,
2013-07-01 08:36:00,66.2,51.0,30.07,North,0,1.6,4.5,58,0.00,,,0.00,pywws,2013-07-01 07:36:00,
2013-07-01 08:41:00,65.7,50.5,30.08,South,180,0.7,3.1,58,0.00,,,0.00,pywws,2013-07-01 07:41:00,
2013-07-01 08:46:00,65.8,50.6,30.07,North,-999,0.0,3.1,58,0.00,,,0.00,pywws,2013-07-01 07:46:00,
2013-07-01 08:51:00,66.4,49.7,30.07,North,-999,0.0,0.7,55,0.00,,,0.00,pywws,2013-07-01 07:51:00,
2013-07-01 09:01:00,67.3,49.6,30.07,NW,315,0.7,2.2,53,0.00,,,0.00,pywws,2013-07-01 08:01:00,
2013-07-01 09:06:00,67.5,50.2,30.08,North,-999,0.0,1.6,54,0.00,,,0.00,pywws,2013-07-01 08:06:00,
2013-07-01 09:11:00,66.9,50.2,30.08,North,-999,0.0,0.7,55,0.00,,,0.00,pywws,2013-07-01 08:11:00,
2013-07-01 09:16:00,67.1,49.4,30.07,North,-999,0.0,1.6,53,0.00,,,0.00,pywws,2013-07-01 08:16:00,
2013-07-01 09:21:00,68.5,49.7,30.08,North,-999,0.0,2.2,51,0.00,,,0.00,pywws,2013-07-01 08:21:00,
2013-07-01 09:31:00,70.2,49.5,30.07,North,-999,0.0,1.6,48,0.00,,,0.00,pywws,2013-07-01 08:31:00,
2013-07-01 09:36:00,72.5,48.7,30.07,South,180,1.6,8.3,43,0.00,,,0.00,pywws,2013-07-01 08:36:00,
2013-07-01 09:41:00,70.3,49.1,30.07,North,-999,0.0,2.2,47,0.00,,,0.00,pywws,2013-07-01 08:41:00,
2013-07-01 09:46:00,68.4,49.5,30.08,West,270,0.7,2.2,51,0.00,,,0.00,pywws,2013-07-01 08:46:00,
2013-07-01 09:51:00,67.1,48.9,30.08,NW,315,1.6,3.8,52,0.00,,,0.00,pywws,2013-07-01 08:51:00,
2013-07-01 10:01:00,67.5,49.7,30.07,North,-999,0.0,2.2,53,0.00,,,0.00,pywws,2013-07-01 09:01:00,
2013-07-01 10:06:00,68.5,50.2,30.07,North,-999,0.0,1.6,52,0.00,,,0.00,pywws,2013-07-01 09:06:00,
2013-07-01 10:11:00,68.7,48.8,30.07,West,270,1.6,5.4,49,0.00,,,0.00,pywws,2013-07-01 09:11:00,
2013-07-01 10:16:00,68.7,49.9,30.07,SE,135,0.7,3.8,51,0.00,,,0.00,pywws,2013-07-01 09:16:00,
2013-07-01 10:21:00,68.0,49.7,30.07,South,180,0.7,3.1,52,0.00,,,0.00,pywws,2013-07-01 09:21:00,
2013-07-01 10:31:00,67.1,49.4,30.07,North,-999,0.0,3.1,53,0.00,,,0.00,pywws,2013-07-01 09:31:00,
2013-07-01 10:36:00,71.6,50.3,30.07,West,270,0.7,5.4,47,0.00,,,0.00,pywws,2013-07-01 09:36:00,
2013-07-01 10:41:00,70.2,48.4,30.07,North,-999,0.0,2.2,46,0.00,,,0.00,pywws,2013-07-01 09:41:00,
2013-07-01 10:46:00,69.3,48.7,30.07,NW,315,0.7,3.1,48,0.00,,,0.00,pywws,2013-07-01 09:46:00,
2013-07-01 10:51:00,68.7,48.2,30.07,SW,225,0.7,1.6,48,0.00,,,0.00,pywws,2013-07-01 09:51:00,
2013-07-01 11:01:00,68.5,48.6,30.07,WNW,292,0.7,1.6,49,0.00,,,0.00,pywws,2013-07-01 10:01:00,
2013-07-01 11:06:00,68.7,48.8,30.07,NW,315,2.2,6.9,49,0.00,,,0.00,pywws,2013-07-01 10:06:00,
2013-07-01 11:11:00,69.1,49.1,30.07,North,-999,0.0,1.6,49,0.00,,,0.00,pywws,2013-07-01 10:11:00,
2013-07-01 11:16:00,69.1,49.6,30.07,West,270,0.7,3.1,50,0.00,,,0.00,pywws,2013-07-01 10:16:00,
2013-07-01 11:21:00,68.7,49.9,30.07,North,-999,0.0,1.6,51,0.00,,,0.00,pywws,2013-07-01 10:21:00,
2013-07-01 11:31:00,68.9,48.9,30.07,SE,135,0.7,2.2,49,0.00,,,0.00,pywws,2013-07-01 10:31:00,
2013-07-01 11:36:00,68.5,49.2,30.07,WNW,292,0.7,2.2,50,0.00,,,0.00,pywws,2013-07-01 10:36:00,
2013-07-01 11:41:00,68.0,49.2,30.06,West,270,0.7,2.2,51,0.00,,,0.00,pywws,2013-07-01 10:41:00,
2013-07-01 11:46:00,67.5,49.2,30.06,South,180,0.7,2.2,52,0.00,,,0.00,pywws,2013-07-01 10:46:00,
2013-07-01 11:51:00,68.5,49.7,30.06,West,270,0.7,3.1,51,0.00,,,0.00,pywws,2013-07-01 10:51:00,
2013-07-01 12:01:00,68.7,50.4,30.06,North,-999,0.0,2.2,52,0.00,,,0.00,pywws,2013-07-01 11:01:00,
2013-07-01 12:06:00,69.4,49.4,30.06,North,0,0.7,3.1,49,0.00,,,0.00,pywws,2013-07-01 11:06:00,
2013-07-01 12:11:00,69.4,50.0,30.06,North,-999,0.0,0.7,50,0.00,,,0.00,pywws,2013-07-01 11:11:00,
2013-07-01 12:16:00,69.6,49.6,30.06,North,-999,0.0,1.6,49,0.00,,,0.00,pywws,2013-07-01 11:16:00,
2013-07-01 12:21:00,69.6,49.0,30.06,NW,315,0.7,3.1,48,0.00,,,0.00,pywws,2013-07-01 11:21:00,
2013-07-01 12:31:00,70.0,49.4,30.06,North,-999,0.0,0.7,48,0.00,,,0.00,pywws,2013-07-01 11:31:00,
2013-07-01 12:36:00,68.4,48.4,30.06,SE,135,0.7,3.1,49,0.00,,,0.00,pywws,2013-07-01 11:36:00,
2013-07-01 12:41:00,68.4,49.0,30.05,West,270,0.7,4.5,50,0.00,,,0.00,pywws,2013-07-01 11:41:00,
2013-07-01 12:46:00,68.5,48.6,30.05,SE,135,0.7,3.1,49,0.00,,,0.00,pywws,2013-07-01 11:46:00,
2013-07-01 12:51:00,68.9,49.5,30.05,North,-999,0.0,3.1,50,0.00,,,0.00,pywws,2013-07-01 11:51:00,
2013-07-01 13:01:00,69.4,49.4,30.05,SW,225,0.7,3.1,49,0.00,,,0.00,pywws,2013-07-01 12:01:00,
2013-07-01 13:06:00,69.4,48.3,30.04,SW,225,2.2,5.4,47,0.00,,,0.00,pywws,2013-07-01 12:06:00,
2013-07-01 13:11:00,69.6,49.0,30.04,North,-999,0.0,1.6,48,0.00,,,0.00,pywws,2013-07-01 12:11:00,
2013-07-01 13:16:00,69.4,49.4,30.04,North,0,2.2,6.0,49,0.00,,,0.00,pywws,2013-07-01 12:16:00,
2013-07-01 13:21:00,69.3,49.3,30.04,North,-999,0.0,2.2,49,0.00,,,0.00,pywws,2013-07-01 12:21:00,
2013-07-01 13:31:00,69.8,49.8,30.04,North,0,0.7,2.2,49,0.00,,,0.00,pywws,2013-07-01 12:31:00,
2013-07-01 13:36:00,70.2,49.0,30.04,SW,225,0.7,3.8,47,0.00,,,0.00,pywws,2013-07-01 12:36:00,
2013-07-01 13:41:00,70.0,48.8,30.04,North,-999,0.0,1.6,47,0.00,,,0.00,pywws,2013-07-01 12:41:00,
2013-07-01 13:46:00,69.8,48.6,30.04,NW,315,0.7,3.1,47,0.00,,,0.00,pywws,2013-07-01 12:46:00,
2013-07-01 13:51:00,69.8,48.6,30.04,North,-999,0.0,1.6,47,0.00,,,0.00,pywws,2013-07-01 12:51:00,
2013-07-01 14:01:00,69.6,49.0,30.04,North,-999,0.0,1.6,48,0.00,,,0.00,pywws,2013-07-01 13:01:00,
2013-07-01 14:06:00,69.6,48.5,30.04,West,270,1.6,6.0,47,0.00,,,0.00,pywws,2013-07-01 13:06:00,
2013-07-01 14:11:00,69.3,49.3,30.03,North,-999,0.0,0.7,49,0.00,,,0.00,pywws,2013-07-01 13:11:00,
2013-07-01 14:16:00,69.3,48.7,30.04,NW,315,0.7,3.1,48,0.00,,,0.00,pywws,2013-07-01 13:16:00,
2013-07-01 14:21:00,69.6,49.0,30.03,SW,225,1.6,5.4,48,0.00,,,0.00,pywws,2013-07-01 13:21:00,
2013-07-01 14:31:00,69.8,49.2,30.03,South,180,0.7,3.8,48,0.00,,,0.00,pywws,2013-07-01 13:31:00,
2013-07-01 14:36:00,68.9,48.9,30.04,West,270,0.7,6.0,49,0.00,,,0.00,pywws,2013-07-01 13:36:00,
2013-07-01 14:41:00,69.1,49.1,30.04,West,270,1.6,5.4,49,0.00,,,0.00,pywws,2013-07-01 13:41:00,
2013-07-01 14:46:00,69.3,48.7,30.04,South,180,2.2,10.7,48,0.00,,,0.00,pywws,2013-07-01 13:46:00,
2013-07-01 14:51:00,68.7,48.8,30.04,North,0,2.2,6.0,49,0.00,,,0.00,pywws,2013-07-01 13:51:00,
2013-07-01 15:01:00,68.7,49.9,30.05,North,-999,0.0,1.6,51,0.00,,,0.00,pywws,2013-07-01 14:01:00,
2013-07-01 15:06:00,68.7,48.8,30.04,SW,225,0.7,2.2,49,0.00,,,0.00,pywws,2013-07-01 14:06:00,
2013-07-01 15:11:00,68.9,48.9,30.04,NW,315,1.6,6.0,49,0.00,,,0.00,pywws,2013-07-01 14:11:00,
2013-07-01 15:16:00,69.3,48.7,30.04,West,270,1.6,4.5,48,0.00,,,0.00,pywws,2013-07-01 14:16:00,
2013-07-01 15:21:00,69.6,47.9,30.04,NW,315,1.6,4.5,46,0.00,,,0.00,pywws,2013-07-01 14:21:00,
2013-07-01 15:31:00,69.6,48.5,30.04,NW,315,1.6,5.4,47,0.00,,,0.00,pywws,2013-07-01 14:31:00,
2013-07-01 15:36:00,69.4,48.9,30.04,NE,45,0.7,2.2,48,0.00,,,0.00,pywws,2013-07-01 14:36:00,
2013-07-01 15:41:00,70.0,48.8,30.04,SW,225,1.6,3.8,47,0.00,,,0.00,pywws,2013-07-01 14:41:00,
2013-07-01 15:46:00,69.8,48.1,30.04,West,270,0.7,2.2,46,0.00,,,0.00,pywws,2013-07-01 14:46:00,
2013-07-01 15:51:00,69.4,47.7,30.04,West,270,0.7,3.1,46,0.00,,,0.00,pywws,2013-07-01 14:51:00,
2013-07-01 16:01:00,69.1,48.0,30.04,NW,315,1.6,6.9,47,0.00,,,0.00,pywws,2013-07-01 15:01:00,
2013-07-01 16:06:00,69.1,48.6,30.04,NE,45,0.7,3.1,48,0.00,,,0.00,pywws,2013-07-01 15:06:00,
2013-07-01 16:11:00,70.3,48.0,30.03,SE,135,1.6,3.1,45,0.00,,,0.00,pywws,2013-07-01 15:11:00,
2013-07-01 16:16:00,70.2,49.0,30.03,North,-999,0.0,3.1,47,0.00,,,0.00,pywws,2013-07-01 15:16:00,
2013-07-01 16:21:00,69.6,46.7,30.03,NW,315,2.2,6.9,44,0.00,,,0.00,pywws,2013-07-01 15:21:00,
2013-07-01 16:31:00,69.1,48.0,30.03,West,270,0.7,2.2,47,0.00,,,0.00,pywws,2013-07-01 15:31:00,
2013-07-01 16:36:00,68.9,48.4,30.03,SW,225,0.7,6.9,48,0.00,,,0.00,pywws,2013-07-01 15:36:00,
2013-07-01 16:41:00,68.9,48.4,30.02,SW,225,0.7,6.9,48,0.00,,,0.00,pywws,2013-07-01 15:41:00,
2013-07-01 16:51:00,68.2,48.3,30.03,West,270,1.6,4.5,49,0.00,,,0.00,pywws,2013-07-01 15:51:00,
2013-07-01 17:01:00,68.7,48.8,30.03,West,270,1.6,3.8,49,0.00,,,0.00,pywws,2013-07-01 16:01:00,
2013-07-01 17:06:00,69.1,48.6,30.03,North,-999,0.0,1.6,48,0.00,,,0.00,pywws,2013-07-01 16:06:00,
2013-07-01 17:11:00,68.4,47.3,30.03,NW,315,1.6,5.4,47,0.00,,,0.00,pywws,2013-07-01 16:11:00,
2013-07-01 17:16:00,68.2,47.7,30.03,West,270,0.7,3.8,48,0.00,,,0.00,pywws,2013-07-01 16:16:00,
2013-07-01 17:21:00,68.0,47.6,30.03,North,0,0.7,2.2,48,0.00,,,0.00,pywws,2013-07-01 16:21:00,
2013-07-01 17:31:00,67.8,48.5,30.03,North,-999,0.0,0.7,50,0.00,,,0.00,pywws,2013-07-01 16:31:00,
2013-07-01 17:36:00,68.7,48.2,30.03,North,0,0.7,3.1,48,0.00,,,0.00,pywws,2013-07-01 16:36:00,
2013-07-01 17:41:00,69.8,47.5,30.03,SW,225,1.6,5.4,45,0.00,,,0.00,pywws,2013-07-01 16:41:00,
2013-07-01 17:46:00,69.8,48.6,30.03,South,180,0.7,2.2,47,0.00,,,0.00,pywws,2013-07-01 16:46:00,
2013-07-01 17:51:00,69.8,46.9,30.03,South,180,1.6,5.4,44,0.00,,,0.00,pywws,2013-07-01 16:51:00,
2013-07-01 18:01:00,69.1,48.0,30.03,North,0,0.7,1.6,47,0.00,,,0.00,pywws,2013-07-01 17:01:00,
2013-07-01 18:06:00,68.9,47.3,30.03,West,270,0.7,3.1,46,0.00,,,0.00,pywws,2013-07-01 17:06:00,
2013-07-01 18:11:00,68.4,46.8,30.03,North,-999,0.0,0.7,46,0.00,,,0.00,pywws,2013-07-01 17:11:00,
2013-07-01 18:16:00,68.4,47.9,30.02,North,0,0.7,3.1,48,0.00,,,0.00,pywws,2013-07-01 17:16:00,
2013-07-01 18:21:00,68.2,47.7,30.02,North,0,2.2,5.4,48,0.00,,,0.00,pywws,2013-07-01 17:21:00,
2013-07-01 18:31:00,67.6,47.8,30.02,NW,315,3.8,6.0,49,0.00,,,0.00,pywws,2013-07-01 17:31:00,
2013-07-01 18:36:00,66.9,47.1,30.02,NNE,22,0.7,3.1,49,0.00,,,0.00,pywws,2013-07-01 17:36:00,
2013-07-01 18:41:00,67.3,47.5,30.03,North,-999,0.0,1.6,49,0.00,,,0.00,pywws,2013-07-01 17:41:00,
2013-07-01 18:46:00,67.8,47.4,30.02,North,0,0.7,2.2,48,0.00,,,0.00,pywws,2013-07-01 17:46:00,
2013-07-01 18:51:00,68.5,48.6,30.02,North,-999,0.0,0.7,49,0.00,,,0.00,pywws,2013-07-01 17:51:00,
2013-07-01 19:01:00,69.8,49.2,30.02,North,-999,0.0,0.7,48,0.00,,,0.00,pywws,2013-07-01 18:01:00,
2013-07-01 19:06:00,70.5,48.1,30.02,North,-999,0.0,1.6,45,0.00,,,0.00,pywws,2013-07-01 18:06:00,
2013-07-01 19:11:00,68.9,47.3,30.02,North,-999,0.0,0.0,46,0.00,,,0.00,pywws,2013-07-01 18:11:00,
2013-07-01 19:16:00,68.9,47.8,30.02,North,-999,0.0,1.6,47,0.00,,,0.00,pywws,2013-07-01 18:16:00,
2013-07-01 19:21:00,69.8,48.6,30.02,North,-999,0.0,0.0,47,0.00,,,0.00,pywws,2013-07-01 18:21:00,
2013-07-01 19:31:00,70.0,47.1,30.02,North,-999,0.0,0.7,44,0.00,,,0.00,pywws,2013-07-01 18:31:00,
2013-07-01 19:36:00,70.0,47.1,30.02,North,-999,0.0,0.7,44,0.00,,,0.00,pywws,2013-07-01 18:36:00,
2013-07-01 19:41:00,70.0,47.7,30.02,North,-999,0.0,0.7,45,0.00,,,0.00,pywws,2013-07-01 18:41:00,
2013-07-01 19:46:00,69.6,47.3,30.01,North,-999,0.0,0.7,45,0.00,,,0.00,pywws,2013-07-01 18:46:00,
2013-07-01 19:51:00,69.1,46.2,30.01,West,270,0.7,3.8,44,0.00,,,0.00,pywws,2013-07-01 18:51:00,
2013-07-01 20:01:00,68.2,47.2,30.01,North,-999,0.0,0.7,47,0.00,,,0.00,pywws,2013-07-01 19:01:00,
2013-07-01 20:06:00,67.8,47.4,30.01,North,-999,0.0,0.0,48,0.00,,,0.00,pywws,2013-07-01 19:06:00,
2013-07-01 20:11:00,66.9,47.7,30.02,North,-999,0.0,1.6,50,0.00,,,0.00,pywws,2013-07-01 19:11:00,
2013-07-01 20:16:00,66.6,46.8,30.01,NW,315,1.6,3.8,49,0.00,,,0.00,pywws,2013-07-01 19:16:00,
2013-07-01 20:21:00,66.0,46.8,30.01,North,-999,0.0,0.0,50,0.00,,,0.00,pywws,2013-07-01 19:21:00,
2013-07-01 20:31:00,65.7,47.0,30.01,North,-999,0.0,1.6,51,0.00,,,0.00,pywws,2013-07-01 19:31:00,
2013-07-01 20:36:00,64.6,46.6,30.02,North,-999,0.0,0.7,52,0.00,,,0.00,pywws,2013-07-01 19:36:00,
2013-07-01 20:41:00,64.2,46.7,30.02,North,-999,0.0,1.6,53,0.00,,,0.00,pywws,2013-07-01 19:41:00,
2013-07-01 20:46:00,63.9,46.9,30.02,North,-999,0.0,0.0,54,0.00,,,0.00,pywws,2013-07-01 19:46:00,
2013-07-01 20:51:00,63.3,46.9,30.02,North,-999,0.0,0.0,55,0.00,,,0.00,pywws,2013-07-01 19:51:00,
2013-07-01 21:01:00,63.1,46.7,30.02,North,-999,0.0,0.0,55,0.00,,,0.00,pywws,2013-07-01 20:01:00,
2013-07-01 21:06:00,62.8,46.8,30.02,North,-999,0.0,0.0,56,0.00,,,0.00,pywws,2013-07-01 20:06:00,
2013-07-01 21:11:00,62.2,46.8,30.02,North,-999,0.0,0.0,57,0.00,,,0.00,pywws,2013-07-01 20:11:00,
2013-07-01 21:16:00,62.1,47.1,30.02,North,-999,0.0,0.0,58,0.00,,,0.00,pywws,2013-07-01 20:16:00,
2013-07-01 21:21:00,61.9,47.4,30.02,North,-999,0.0,0.0,59,0.00,,,0.00,pywws,2013-07-01 20:21:00,
2013-07-01 21:31:00,61.9,47.4,30.02,North,-999,0.0,0.0,59,0.00,,,0.00,pywws,2013-07-01 20:31:00,
2013-07-01 21:36:00,61.7,47.2,30.03,North,-999,0.0,0.0,59,0.00,,,0.00,pywws,2013-07-01 20:36:00,
2013-07-01 21:41:00,61.5,47.5,30.03,North,-999,0.0,0.0,60,0.00,,,0.00,pywws,2013-07-01 20:41:00,
2013-07-01 21:46:00,61.5,47.5,30.03,North,-999,0.0,0.0,60,0.00,,,0.00,pywws,2013-07-01 20:46:00,
2013-07-01 21:51:00,61.3,47.8,30.03,North,-999,0.0,0.0,61,0.00,,,0.00,pywws,2013-07-01 20:51:00,
2013-07-01 22:01:00,61.2,47.6,30.03,North,-999,0.0,0.0,61,0.00,,,0.00,pywws,2013-07-01 21:01:00,
2013-07-01 22:06:00,60.8,47.3,30.03,North,-999,0.0,0.0,61,0.00,,,0.00,pywws,2013-07-01 21:06:00,
2013-07-01 22:11:00,60.3,47.2,30.03,North,-999,0.0,0.0,62,0.00,,,0.00,pywws,2013-07-01 21:11:00,
2013-07-01 22:16:00,59.9,47.3,30.03,North,-999,0.0,0.0,63,0.00,,,0.00,pywws,2013-07-01 21:16:00,
2013-07-01 22:21:00,59.7,47.1,30.03,North,-999,0.0,0.0,63,0.00,,,0.00,pywws,2013-07-01 21:21:00,
2013-07-01 22:31:00,59.4,47.2,30.03,North,-999,0.0,0.0,64,0.00,,,0.00,pywws,2013-07-01 21:31:00,
2013-07-01 22:36:00,59.2,47.0,30.03,North,-999,0.0,0.0,64,0.00,,,0.00,pywws,2013-07-01 21:36:00,
2013-07-01 22:41:00,59.0,46.8,30.03,North,-999,0.0,0.0,64,0.00,,,0.00,pywws,2013-07-01 21:41:00,
2013-07-01 22:46:00,58.8,47.1,30.03,North,-999,0.0,0.0,65,0.00,,,0.00,pywws,2013-07-01 21:46:00,
2013-07-01 22:51:00,58.6,46.9,30.03,North,-999,0.0,0.0,65,0.00,,,0.00,pywws,2013-07-01 21:51:00,
2013-07-01 23:01:00,58.5,47.1,30.03,North,-999,0.0,0.0,66,0.00,,,0.00,pywws,2013-07-01 22:01:00,
2013-07-01 23:06:00,58.3,47.0,30.02,North,-999,0.0,0.0,66,0.00,,,0.00,pywws,2013-07-01 22:06:00,
2013-07-01 23:11:00,57.9,47.0,30.02,North,-999,0.0,0.0,67,0.00,,,0.00,pywws,2013-07-01 22:11:00,
2013-07-01 23:16:00,57.6,47.1,30.02,North,-999,0.0,0.0,68,0.00,,,0.00,pywws,2013-07-01 22:16:00,
2013-07-01 23:21:00,57.6,47.1,30.02,North,-999,0.0,0.0,68,0.00,,,0.00,pywws,2013-07-01 22:21:00,
2013-07-01 23:31:00,57.4,46.9,30.02,North,-999,0.0,0.0,68,0.00,,,0.00,pywws,2013-07-01 22:31:00,
2013-07-01 23:36:00,57.6,47.1,30.02,North,-999,0.0,1.6,68,0.00,,,0.00,pywws,2013-07-01 22:36:00,
2013-07-01 23:41:00,57.4,46.9,30.02,North,-999,0.0,0.0,68,0.00,,,0.00,pywws,2013-07-01 22:41:00,
2013-07-01 23:46:00,57.2,47.1,30.02,North,-999,0.0,1.6,69,0.00,,,0.00,pywws,2013-07-01 22:46:00,
2013-07-01 23:51:00,57.0,46.9,30.03,North,-999,0.0,0.0,69,0.00,,,0.00,pywws,2013-07-01 22:51:00,